星链-32602 (STARLINK-32602)

导读 | 星芒AI

STARLINK-32602 是 SpaceX 星链计划中的一颗低轨通信卫星,属于第三代星链卫星(v1.5 或 v2 版本)。该卫星由猎鹰9号火箭发射入轨,旨在提供全球高速互联网服务。它搭载先进通信设备,支持更高带宽和更低延迟,增强偏远地区的网络覆盖。作为星链星座的一部分,STARLINK-32602 与其他卫星协同工作,提升整体网络性能与稳定性。

基本信息
目录编号:
62181
目录名称:
STARLINK-32602
国际标识:
2024-225U
轨道中心:
EARTH
卫星名称:
星链-32602
卫星全名:
星链-32602 (STARLINK-32602)
卫星状态:
在轨 (已飞行339 天)
发射日期:
2024-11-30 UTC
国别 :
美国 (US)
星等 :
--
轨道信息
数据来源 国际轨道数据
星历时间: 2025-11-04T05:46:35+0800
13小时前
查看轨道信息
半长轴: 6950.163km
偏心率: 0.0003104
轨道倾角: 70.003°
近地点辐角 269.826°
升交点赤经 111.611°
平近点角 90.254°
近地点: 569.87km
远地点: 574.186km
周期: 96.106分钟
每日圈数: 14.983399
详细信息
固有亮度:
5
最大亮度:
2.5
卫星平台:
Starlink V1.0
覆盖范围:
全球
运营商:
太空探索技术公司
运营商所在国:
美国
制造商(研发单位):
太空探索技术公司
制造商所在国:
美国
使用方式:
暂无
卫星简介
Starlink 计划是 SpaceX 推出的全球卫星互联网项目,通过发射低轨道卫星,为全球尤其是偏远地区提供高速、低延迟的互联网服务。自 2019 年起,Starlink 已部署数千颗卫星,旨在缩小全球数字鸿沟,推动互联网普及。该项目还为军事、航空等行业提供通信支持,带来广泛经济效益。
2D轨道图
3D轨道图
轨道高度分析图
轨道倾角分析图
轨道综合分析图
查看轨道综合分析图